Weather History for South Pass, WY

Change the Weather History Date:

Thursday, October 10, 2013

  Actual Average (KLND) Record (KLND)
Temperature  
Mean Temperature 36 °F 48 °F  
Max Temperature 39 °F 61 °F 80 °F (1996)
Min Temperature 33 °F 35 °F 10 °F (2009)
Degree Days  
Heating Degree Days 29 17  
Month to date heating degree days 154  
Since 1 July heating degree days 413  
Cooling Degree Days 0 0  
Month to date cooling degree days 0  
Year to date cooling degree days 472  
Moisture  
Dew Point 34 °F    
Average Humidity 95    
Maximum Humidity 100    
Minimum Humidity 75    
Precipitation  
Precipitation 0.19 in 0.04 in 0.79 in (2008)
Month to date precipitation 0.45  
Year to date precipitation 10.38  
Snow  
Snow 0.00 in 0.30 in - ()
Month to date snowfall 2.6  
Since 1 July snowfall 5.3  
Since 1 September snowfall 5.3  
Snow Depth -    
Sea Level Pressure  
Sea Level Pressure 29.76 in    
Wind  
Wind Speed 5 mph (NW)    
Max Wind Speed 12 mph    
Max Gust Speed -    
Visibility 8 miles    
Events Rain , Snow    
T = Trace of Precipitation, MM = Missing Value Source: NWS Daily Summary

Daily Weather History Graph

Daily Weather History Graph

Search for Another Location

Airport:

Trip Planner

Search our weather history database for the weather conditions in past years. The results will help you decide how hot, cold, wet, or windy it might be!

Date:

Astronomy

Oct. 10, 2013 Rise Set
Actual Time 7:22 AM MDT 6:40 PM MDT
Civil Twilight 6:54 AM MDT 7:08 PM MDT
Nautical Twilight 6:21 AM MDT 7:41 PM MDT
Astronomical Twilight 5:49 AM MDT 8:13 PM MDT
Moon 1:21 PM MDT (10/10) 11:17 PM MDT (10/10)
Length of Visible Light 12h 14m
Length of Day
11h 17m
Waxing Crescent, 36% of the Moon is Illuminated
Oct 10
Waxing Crescent
Oct 11
First Quarter
Oct 18
Full
Oct 26
Last Quarter
Nov 3
New

Hourly Weather History & Observations

Time (MDT) Temp. Windchill Dew Point Humidity Pressure Visibility Wind Dir Wind Speed Gust Speed Precip Events Conditions
12:15 AM 33.8 °F 25.3 °F 33.8 °F 100% 29.90 in 10.0 mi North 11.5 mph - N/A   Clear
12:35 AM 33.8 °F 27.0 °F 33.8 °F 100% 29.90 in 10.0 mi North 8.1 mph - N/A   Scattered Clouds
12:55 AM 33.8 °F 27.7 °F 33.8 °F 100% 29.89 in 10.0 mi North 6.9 mph - N/A   Scattered Clouds
1:15 AM 33.8 °F 27.7 °F 33.8 °F 100% 29.88 in 10.0 mi North 6.9 mph - N/A   Scattered Clouds
1:35 AM 33.8 °F 27.7 °F 33.8 °F 100% 29.87 in 10.0 mi North 6.9 mph - N/A   Scattered Clouds
1:55 AM 33.8 °F 27.7 °F 33.8 °F 100% 29.87 in 10.0 mi North 6.9 mph - N/A   Scattered Clouds
2:15 AM 33.8 °F 27.0 °F 33.8 °F 100% 29.86 in 10.0 mi North 8.1 mph - N/A   Scattered Clouds
2:35 AM 33.8 °F 27.0 °F 32.0 °F 93% 29.86 in 5.0 mi North 8.1 mph - N/A   Mostly Cloudy
2:55 AM 33.8 °F 27.0 °F 33.8 °F 100% 29.86 in 4.0 mi North 8.1 mph - N/A   Scattered Clouds
3:15 AM 33.8 °F 27.7 °F 33.8 °F 100% 29.85 in 5.0 mi North 6.9 mph - N/A   Mostly Cloudy
3:35 AM 33.8 °F 28.6 °F 33.8 °F 100% 29.86 in 7.0 mi NNE 5.8 mph - N/A   Overcast
3:55 AM 33.8 °F 29.6 °F 33.8 °F 100% 29.85 in 7.0 mi NNE 4.6 mph - N/A   Overcast
4:15 AM 33.8 °F 29.6 °F 33.8 °F 100% 29.85 in 10.0 mi NNE 4.6 mph - N/A   Overcast
4:35 AM 35.6 °F 32.8 °F 33.8 °F 93% 29.84 in 10.0 mi North 3.5 mph - N/A   Overcast
4:55 AM 37.4 °F 34.9 °F 32.0 °F 81% 29.83 in 10.0 mi SSW 3.5 mph - N/A   Overcast
5:15 AM 39.2 °F 37.0 °F 32.0 °F 75% 29.83 in 10.0 mi SE 3.5 mph - N/A   Overcast
5:35 AM 37.4 °F - 32.0 °F 81% 29.81 in 10.0 mi Calm Calm - N/A   Overcast
5:55 AM 39.2 °F - 32.0 °F 75% 29.81 in 10.0 mi Calm Calm - N/A   Overcast
6:15 AM 37.4 °F - 32.0 °F 81% 29.81 in 10.0 mi Calm Calm - N/A   Overcast
6:35 AM 35.6 °F 32.8 °F 33.8 °F 93% 29.81 in 10.0 mi NE 3.5 mph - N/A   Overcast
6:55 AM 35.6 °F 31.7 °F 33.8 °F 93% 29.81 in 10.0 mi ENE 4.6 mph - N/A   Overcast
7:15 AM 35.6 °F 32.8 °F 33.8 °F 93% 29.79 in 10.0 mi North 3.5 mph - N/A   Overcast
7:35 AM 35.6 °F - 33.8 °F 93% 29.79 in 10.0 mi Calm Calm - N/A   Overcast
7:55 AM 37.4 °F - 32.0 °F 81% 29.79 in 10.0 mi Calm Calm - N/A   Overcast
8:15 AM 37.4 °F - 32.0 °F 81% 29.81 in 10.0 mi Calm Calm - N/A   Overcast
8:35 AM 37.4 °F 30.8 °F 32.0 °F 81% 29.81 in 10.0 mi SSE 9.2 mph - N/A   Overcast
8:55 AM 35.6 °F 29.2 °F 33.8 °F 93% 29.81 in 5.0 mi SSE 8.1 mph - N/A Snow Light Snow
9:15 AM 35.6 °F - 33.8 °F 93% 29.79 in 1.5 mi Calm Calm - N/A Snow Light Snow
9:35 AM 33.8 °F - 33.8 °F 100% 29.79 in 0.2 mi Calm Calm - N/A Snow Snow
9:55 AM 33.8 °F - 33.8 °F 100% 29.78 in 0.2 mi Calm Calm - N/A Snow Snow
10:15 AM 33.8 °F - 33.8 °F 100% 29.77 in 0.5 mi Calm Calm - N/A Snow Snow
10:35 AM 33.8 °F 30.8 °F 33.8 °F 100% 29.77 in 0.5 mi South 3.5 mph - N/A Snow Light Snow
10:55 AM 33.8 °F - 33.8 °F 100% 29.76 in 2.5 mi Calm Calm - N/A Snow Light Snow
11:15 AM 33.8 °F - 33.8 °F 100% 29.75 in 1.2 mi Calm Calm - N/A Snow Light Snow
11:35 AM 33.8 °F - 33.8 °F 100% 29.75 in 2.0 mi Calm Calm - N/A Snow Light Snow
11:55 AM 33.8 °F - 33.8 °F 100% 29.74 in 3.0 mi Calm Calm - N/A Rain Light Rain
12:15 PM 33.8 °F - 33.8 °F 100% 29.74 in 4.0 mi Calm Calm - 0.04 in Snow Light Snow
12:35 PM 35.6 °F - 35.6 °F 100% 29.73 in 10.0 mi Calm Calm - 0.11 in   Overcast
12:55 PM 35.6 °F - 35.6 °F 100% 29.72 in 10.0 mi Calm Calm - 0.16 in   Overcast
1:15 PM 35.6 °F - 35.6 °F 100% 29.71 in 10.0 mi Calm Calm - 0.01 in   Unknown
1:35 PM 35.6 °F - 35.6 °F 100% 29.70 in 10.0 mi Calm Calm - 0.01 in   Unknown
1:55 PM 35.6 °F 32.8 °F 35.6 °F 100% 29.70 in 10.0 mi SE 3.5 mph - 0.01 in   Unknown
2:15 PM 37.4 °F 33.8 °F 35.6 °F 93% 29.69 in 10.0 mi South 4.6 mph - N/A   Unknown
2:35 PM 35.6 °F - 35.6 °F 100% 29.69 in 10.0 mi Calm Calm - N/A   Overcast
2:55 PM 35.6 °F - 35.6 °F 100% 29.69 in 10.0 mi Calm Calm - N/A   Overcast
3:15 PM 37.4 °F - 35.6 °F 93% 29.69 in 10.0 mi Calm Calm - N/A   Overcast
3:35 PM 37.4 °F 34.9 °F 35.6 °F 93% 29.69 in 10.0 mi South 3.5 mph - N/A   Overcast
3:55 PM 37.4 °F 32.8 °F 35.6 °F 93% 29.69 in 7.0 mi South 5.8 mph - N/A   Drizzle
4:15 PM 37.4 °F 32.8 °F 35.6 °F 93% 29.69 in 5.0 mi South 5.8 mph - N/A Rain Light Rain
4:35 PM 35.6 °F - 35.6 °F 100% 29.69 in 10.0 mi Calm Calm - N/A   Unknown
4:55 PM 37.4 °F - 35.6 °F 93% 29.69 in 10.0 mi Calm Calm - N/A   Unknown
5:15 PM 37.4 °F - 35.6 °F 93% 29.68 in 10.0 mi Calm Calm - N/A   Unknown
5:35 PM 37.4 °F - 35.6 °F 93% 29.68 in 10.0 mi Calm Calm - N/A   Overcast
5:55 PM 37.4 °F - 35.6 °F 93% 29.69 in 10.0 mi Calm Calm - N/A   Overcast
6:15 PM 37.4 °F - 35.6 °F 93% 29.69 in 7.0 mi Calm Calm - N/A   Overcast
6:35 PM 37.4 °F - 35.6 °F 93% 29.69 in 7.0 mi Calm Calm - N/A   Overcast
6:55 PM 37.4 °F - 35.6 °F 93% 29.69 in 10.0 mi Calm Calm - N/A   Overcast
7:15 PM 37.4 °F - 35.6 °F 93% 29.69 in 10.0 mi Calm Calm - N/A   Overcast
7:35 PM 35.6 °F - 35.6 °F 100% 29.69 in 10.0 mi Calm Calm - N/A   Light Drizzle
7:55 PM 35.6 °F 31.7 °F 35.6 °F 100% 29.69 in 10.0 mi WSW 4.6 mph - N/A Rain Light Rain
8:15 PM 35.6 °F 30.7 °F 33.8 °F 93% 29.69 in 7.0 mi WSW 5.8 mph - N/A   Overcast
8:35 PM 35.6 °F 29.9 °F 35.6 °F 100% 29.69 in 5.0 mi WSW 6.9 mph - 0.01 in   Drizzle
8:55 PM 35.6 °F 29.9 °F 33.8 °F 93% 29.69 in 4.0 mi West 6.9 mph - 0.01 in Rain Rain
9:15 PM 33.8 °F 27.0 °F 33.8 °F 100% 29.68 in 7.0 mi WSW 8.1 mph - N/A Rain Light Rain
9:35 PM 33.8 °F 28.6 °F 33.8 °F 100% 29.68 in 10.0 mi West 5.8 mph - N/A   Light Drizzle
9:55 PM 33.8 °F 29.6 °F 33.8 °F 100% 29.68 in 10.0 mi West 4.6 mph - N/A   Overcast
10:15 PM 35.6 °F 32.8 °F 35.6 °F 100% 29.69 in 10.0 mi NNW 3.5 mph - N/A   Overcast
10:35 PM 35.6 °F 31.7 °F 33.8 °F 93% 29.68 in 10.0 mi West 4.6 mph - N/A   Overcast
10:55 PM 35.6 °F 32.8 °F 35.6 °F 100% 29.68 in 10.0 mi West 3.5 mph - N/A   Drizzle
11:15 PM 35.6 °F - 33.8 °F 93% 29.69 in 7.0 mi Calm Calm - 0.01 in Rain Rain
11:35 PM 35.6 °F 30.7 °F 35.6 °F 100% 29.68 in 10.0 mi WNW 5.8 mph - 0.01 in   Light Drizzle
11:55 PM 35.6 °F 29.2 °F 35.6 °F 100% 29.68 in 10.0 mi NW 8.1 mph - 0.01 in   Overcast